Location: Middle Street
(51.7167°N, 0.0333°E)
Time: 02:22:42
(UTC+00:00)

Cosmos 2082 - Pass Details

Date: 20 January 2021
Orbit: 835 x 854 km, 71.0° (Epoch: 28 February)

Event Time Altitude Azimuth Distance (km) Brightness Sun altitude
Rises 16:53:18 0° 217° (SW) 3,413 8.2 -4.3°
Reaches altitude 10° 16:55:46 10° 220° (SW) 2,480 7.4 -4.6°
Maximum altitude 17:01:27 69° 303° (WNW) 912 4.1 -5.4°
Drops below altitude 10° 17:07:09 10° 27° (NNE) 2,485 5.7 -6.2°
Enters shadow 17:09:18 - 30° (NNE) 3,299 6.3 -6.5°
